Time,TemperatureF,DewpointF,PressureIn,WindDirection,WindDirectionDegrees,WindSpeedMPH,WindSpeedGustMPH,Humidity,HourlyPrecipIn,Conditions,Clouds,dailyrainin,SoftwareType,DateUTC
2013-10-17 00:29:00,55.4,54.8,29.70,SSW,213,1.0,6.0,98,0.04,,---,0.04,VWS V14.00,2013-10-17 04:29:00,
2013-10-17 00:59:00,54.8,54.2,29.69,WSW,239,0.0,5.0,98,0.06,,---,0.06,VWS V14.00,2013-10-17 04:59:00,
2013-10-17 01:29:00,54.4,53.8,29.69,ESE,123,1.0,3.0,98,0.09,,---,0.09,VWS V14.00,2013-10-17 05:29:00,
2013-10-17 01:59:00,54.5,54.2,29.68,SW,229,2.0,3.0,99,0.14,,---,0.18,VWS V14.00,2013-10-17 05:59:00,
2013-10-17 02:29:00,54.5,54.2,29.68,South,174,0.0,0.0,99,0.14,,---,0.20,VWS V14.00,2013-10-17 06:29:00,
2013-10-17 02:59:00,53.5,52.7,29.69,North,10,0.0,2.0,97,0.13,,---,0.22,VWS V14.00,2013-10-17 06:59:00,
2013-10-17 03:29:00,51.9,50.8,29.69,NNW,327,0.0,0.0,96,0.04,,---,0.22,VWS V14.00,2013-10-17 07:29:00,
2013-10-17 03:59:00,49.8,49.0,29.69,North,355,0.0,0.0,97,0.02,,---,0.22,VWS V14.00,2013-10-17 07:59:00,
2013-10-17 04:29:00,48.5,47.7,29.69,North,355,0.0,0.0,97,0.00,,---,0.22,VWS V14.00,2013-10-17 08:29:00,
2013-10-17 04:59:00,47.2,46.4,29.70,North,355,0.0,0.0,97,0.00,,---,0.22,VWS V14.00,2013-10-17 08:59:00,
2013-10-17 05:29:00,46.4,45.9,29.70,North,355,0.0,0.0,98,0.00,,---,0.22,VWS V14.00,2013-10-17 09:29:00,
2013-10-17 05:59:00,45.4,44.9,29.71,North,355,0.0,0.0,98,0.00,,---,0.22,VWS V14.00,2013-10-17 09:59:00,
2013-10-17 06:29:00,44.8,44.5,29.71,North,355,0.0,0.0,99,0.00,,---,0.22,VWS V14.00,2013-10-17 10:29:00,
2013-10-17 06:59:00,44.9,44.6,29.71,North,355,0.0,0.0,99,0.00,,---,0.22,VWS V14.00,2013-10-17 10:59:00,
2013-10-17 07:29:00,46.4,46.1,29.72,WNW,290,3.0,4.0,99,0.00,,---,0.22,VWS V14.00,2013-10-17 11:29:00,
2013-10-17 07:59:00,48.7,48.4,29.73,NNE,24,0.0,1.0,99,0.00,,---,0.22,VWS V14.00,2013-10-17 11:59:00,
2013-10-17 08:29:00,49.8,49.8,29.74,NNE,19,1.0,1.0,100,0.00,,---,0.22,VWS V14.00,2013-10-17 12:29:00,
2013-10-17 08:59:00,50.3,50.3,29.74,WSW,254,0.0,3.0,100,0.00,,---,0.22,VWS V14.00,2013-10-17 12:59:00,
2013-10-17 09:29:00,50.6,50.6,29.75,SE,126,0.0,1.0,100,0.00,,---,0.22,VWS V14.00,2013-10-17 13:29:00,
2013-10-17 09:59:00,50.9,50.9,29.75,ESE,108,0.0,1.0,100,0.00,,---,0.22,VWS V14.00,2013-10-17 13:59:00,
2013-10-17 10:29:00,51.7,51.4,29.75,NW,314,1.0,6.0,99,0.00,,---,0.22,VWS V14.00,2013-10-17 14:29:00,
2013-10-17 10:59:00,52.6,51.5,29.75,WNW,292,0.0,1.0,96,0.00,,---,0.22,VWS V14.00,2013-10-17 14:59:00,
2013-10-17 11:29:00,53.7,51.7,29.76,NW,322,2.0,4.0,93,0.00,,---,0.22,VWS V14.00,2013-10-17 15:29:00,
2013-10-17 11:59:00,54.9,52.3,29.76,WNW,286,2.0,6.0,91,0.00,,---,0.22,VWS V14.00,2013-10-17 15:59:00,
2013-10-17 12:29:00,54.8,51.3,29.75,SE,144,0.0,4.0,88,0.00,,---,0.22,VWS V14.00,2013-10-17 16:29:00,
2013-10-17 12:59:00,55.5,52.0,29.75,WSW,241,1.0,3.0,88,0.00,,---,0.22,VWS V14.00,2013-10-17 16:59:00,
2013-10-17 13:29:00,56.4,52.0,29.74,South,186,0.0,1.0,85,0.00,,---,0.22,VWS V14.00,2013-10-17 17:29:00,
2013-10-17 13:59:00,55.3,51.5,29.74,SE,130,0.0,2.0,87,0.00,,---,0.22,VWS V14.00,2013-10-17 17:59:00,
2013-10-17 14:29:00,55.7,51.3,29.74,South,176,0.0,1.0,85,0.00,,---,0.22,VWS V14.00,2013-10-17 18:29:00,
2013-10-17 14:59:00,55.9,51.5,29.74,SSE,160,0.0,4.0,85,0.00,,---,0.22,VWS V14.00,2013-10-17 18:59:00,
2013-10-17 15:29:00,55.4,51.0,29.75,SSE,157,0.0,1.0,85,0.00,,---,0.22,VWS V14.00,2013-10-17 19:29:00,
2013-10-17 15:59:00,55.1,51.0,29.75,SSW,198,3.0,3.0,86,0.00,,---,0.22,VWS V14.00,2013-10-17 19:59:00,
2013-10-17 16:29:00,54.6,50.5,29.74,ESE,105,1.0,2.0,86,0.00,,---,0.22,VWS V14.00,2013-10-17 20:29:00,
2013-10-17 16:59:00,53.6,50.1,29.74,WSW,249,0.0,0.0,88,0.00,,---,0.22,VWS V14.00,2013-10-17 20:59:00,
2013-10-17 17:29:00,52.9,50.0,29.74,SSE,167,0.0,0.0,90,0.00,,---,0.22,VWS V14.00,2013-10-17 21:29:00,
2013-10-17 17:59:00,52.3,49.8,29.74,SSE,167,0.0,0.0,91,0.00,,---,0.22,VWS V14.00,2013-10-17 21:59:00,
2013-10-17 18:29:00,51.8,49.8,29.73,SSE,167,0.0,0.0,93,0.00,,---,0.22,VWS V14.00,2013-10-17 22:29:00,
2013-10-17 18:59:00,51.4,49.5,29.73,SSE,167,0.0,0.0,93,0.00,,---,0.22,VWS V14.00,2013-10-17 22:59:00,
2013-10-17 19:29:00,50.5,48.8,29.72,SSE,167,0.0,0.0,94,0.00,,---,0.22,VWS V14.00,2013-10-17 23:29:00,
2013-10-17 19:59:00,49.9,48.8,29.72,SSE,167,0.0,0.0,96,0.00,,---,0.22,VWS V14.00,2013-10-17 23:59:00,
2013-10-17 20:29:00,49.4,48.3,29.72,East,90,0.0,1.0,96,0.00,,---,0.22,VWS V14.00,2013-10-18 00:29:00,
2013-10-17 20:59:00,48.8,47.4,29.71,East,89,0.0,0.0,95,0.00,,---,0.22,VWS V14.00,2013-10-18 00:59:00,
2013-10-17 21:29:00,48.3,47.5,29.72,ENE,70,0.0,0.0,97,0.00,,---,0.22,VWS V14.00,2013-10-18 01:29:00,
2013-10-17 21:59:00,48.4,47.6,29.71,ENE,70,0.0,0.0,97,0.00,,---,0.22,VWS V14.00,2013-10-18 01:59:00,
2013-10-17 22:29:00,48.5,48.0,29.71,ENE,70,0.0,0.0,98,0.00,,---,0.22,VWS V14.00,2013-10-18 02:29:00,
2013-10-17 22:59:00,48.4,47.6,29.70,ENE,70,0.0,0.0,97,0.00,,---,0.22,VWS V14.00,2013-10-18 02:59:00,
2013-10-17 23:29:00,48.4,47.9,29.68,ENE,70,0.0,0.0,98,0.00,,---,0.22,VWS V14.00,2013-10-18 03:29:00,
2013-10-17 23:59:00,48.2,47.7,29.67,ENE,70,0.0,0.0,98,0.00,,---,0.00,VWS V14.00,2013-10-18 03:59:00,